星链-37135(STARLINK-37135)

导读

STARLINK-37135(NORAD编号68602)是美国太空探索技术公司(SpaceX)星链(Starlink)低轨互联网星座中的组网卫星,作为星链项目的一部分,它旨在为全球提供高速低延迟宽带互联网服务,可满足偏远地区网络接入、应急通信等多元场景需求。该卫星运行在近地轨道,与其他数千颗星链卫星共同构建低轨通信星座,推动全球卫星互联网服务普及,目前处于在轨运行状态,参与星座的全球覆盖组网工作。

基本信息
目录编号:
68602
目录名称:
STARLINK-37135
国际标识:
2026-073A
轨道中心:
EARTH
卫星名称:
星链-37135
卫星全名:
星链-37135(STARLINK-37135)
卫星状态:
在轨 (已飞行160 天)
发射日期:
2026-04-05 UTC
国别 :
美国 (US)
星等 :
--
该卫星已列入 空间交会检测服务 Space Conjunction Data Service (SCDS) ,当前飞行风险评估等级: 无高风险
轨道信息
数据来源 国际轨道数据 AOE轨道数据
星历时间 2026-09-11T20:32:03+0800
16小时前
查看轨道信息
2026-09-05T23:00:00+0800
6天前
查看轨道信息
半长轴 6843.66km 6843.729km
偏心率 0.0002064 0.0001831
轨道倾角 97.285° 97.286°
近地点辐角 89.553° 89.164°
升交点赤经 92.647° 86.834°
平近点角 270.594° 137.038°
近地点 464.11km 464.338km
远地点 466.936km 466.846km
周期 93.906分钟 93.907分钟
每日圈数 15.334521 15.334287
详细信息
固有亮度:
5
最大亮度:
2.5
卫星平台:
Starlink V1.0
覆盖范围:
全球
运营商:
太空探索技术公司
运营商所在国:
美国
制造商(研发单位):
太空探索技术公司
制造商所在国:
美国
使用方式:
暂无
卫星简介
Starlink 计划是 SpaceX 推出的全球卫星互联网项目,通过发射低轨道卫星,为全球尤其是偏远地区提供高速、低延迟的互联网服务。自 2019 年起,Starlink 已部署数千颗卫星,旨在缩小全球数字鸿沟,推动互联网普及。该项目还为军事、航空等行业提供通信支持,带来广泛经济效益。
2D轨道图
3D轨道图
轨道高度分析图
轨道倾角分析图
轨道综合分析图
查看轨道综合分析图
与全量物体交会距离演化趋势
与全量物体交会风险概率演化趋势